Date String (YYYY-MM-DD hh:mm:ss) UTC,Instrument flags,absolute air pressure of the measurement (hPa),sample flow rate (lpm),inlet stack bypass flow (lpm),air temperature of the measurement (°C),ambient temperature measured by the external sensor (°C),aerosol sample conditioner tube jacket temperature (°C),OPC LED temperature (°C),internal box temperature (°C),relative humidity of the measurement (%),span deviation,mass concentration of particles derived from Lorenz-Mie calculation of OPC scattering (μg/m³),mass concentration of particles derived from Lorenz-Mie calculation of OPC scattering (μg/m³),mass concentration of particles derived from Lorenz-Mie calculation of OPC scattering (μg/m³)
DateTimeUTC,F1_M11,P_M11,Q1_M11,Q2_M11,T1_M11,T2_M11,T3_M11,T4_M11,T5_M11,U1_M11,ZSPAN_M11,X2_M11,X0_M11,X1_M11
2023-10-08 01:00:00,SystemResetWarning,0835.0,5.00,000.00,028.7,027.8,000.0,036.9,030.5,14.3,0000.0,0003.25,0011.24,0002.18
2023-10-08 01:01:00,SystemResetWarning,0835.0,4.98,000.00,028.7,027.0,000.0,036.9,030.4,14.4,0000.0,0003.27,0010.61,0002.16
2023-10-08 01:02:00,SystemResetWarning,0835.4,5.01,000.00,028.6,025.1,000.0,036.9,030.2,14.4,0000.0,0003.25,0009.74,0002.16
2023-10-08 01:03:00,SystemResetWarning,0835.2,5.02,000.00,028.5,024.6,000.0,036.8,030.1,14.4,0000.0,0003.22,0008.78,0002.15
2023-10-08 01:04:00,SystemResetWarning,0834.8,4.99,000.00,028.4,024.8,000.0,036.8,029.9,14.4,0000.0,0003.23,0008.86,0002.14
2023-10-08 01:05:00,SystemResetWarning,0834.9,5.00,000.00,028.4,025.2,000.0,036.8,029.9,14.3,0000.0,0003.18,0009.53,0002.13
2023-10-08 01:06:00,SystemResetWarning,0834.8,5.01,000.00,028.3,025.6,000.0,036.8,029.9,14.2,0000.0,0003.16,0009.43,0002.13
2023-10-08 01:07:00,SystemResetWarning,0834.9,5.00,000.00,028.3,025.9,000.0,036.8,029.9,14.2,0000.0,0003.15,0009.38,0002.13
2023-10-08 01:08:00,SystemResetWarning,0835.4,5.00,000.00,028.3,026.2,000.0,036.8,030.0,14.2,0000.0,0003.15,0009.07,0002.12
2023-10-08 01:09:00,SystemResetWarning,0835.3,5.00,000.00,028.4,026.5,000.0,036.8,030.1,14.2,0000.0,0003.17,0009.19,0002.12
2023-10-08 01:10:00,SystemResetWarning,0835.1,5.00,000.00,028.4,026.7,000.0,036.8,030.1,14.1,0000.0,0003.14,0009.98,0002.09
2023-10-08 01:11:00,SystemResetWarning,0834.9,5.00,000.00,028.4,026.9,000.0,036.8,030.2,14.1,0000.0,0003.08,0010.23,0002.06
2023-10-08 01:12:00,SystemResetWarning,0834.9,5.00,000.00,028.4,027.1,000.0,036.8,030.2,14.1,0000.0,0002.99,0010.42,0002.06
2023-10-08 01:13:00,SystemResetWarning,0834.9,4.99,000.00,028.5,027.2,000.0,036.9,030.3,14.0,0000.0,0002.98,0011.32,0002.06
2023-10-08 01:14:00,SystemResetWarning,0834.9,4.99,000.00,028.5,027.3,000.0,036.9,030.3,14.0,0000.0,0002.98,0011.38,0002.06
2023-10-08 01:15:00,SystemResetWarning,0835.0,5.00,000.00,028.6,027.4,000.0,036.9,030.3,14.0,0000.0,0002.91,0011.23,0002.06
2023-10-08 01:16:00,SystemResetWarning,0835.0,5.01,000.00,028.6,027.5,000.0,036.9,030.4,14.0,0000.0,0002.87,0010.41,0002.05
2023-10-08 01:17:00,SystemResetWarning,0834.9,5.01,000.00,028.6,027.5,000.0,037.0,030.4,13.9,0000.0,0002.84,0010.67,0002.05
2023-10-08 01:18:00,SystemResetWarning,0834.9,5.00,000.00,028.7,027.5,000.0,037.0,030.5,13.9,0000.0,0002.83,0011.31,0002.04
2023-10-08 01:19:00,SystemResetWarning,0834.9,4.98,000.00,028.7,025.9,000.0,036.9,030.3,13.9,0000.0,0002.79,0011.14,0002.04
2023-10-08 01:20:00,SystemResetWarning,0834.8,5.02,000.00,028.6,024.5,000.0,036.9,030.1,13.9,0000.0,0002.69,0010.81,0002.03
2023-10-08 01:21:00,SystemResetWarning,0835.3,5.01,000.00,028.5,024.5,000.0,036.8,029.9,14.0,0000.0,0002.67,0009.63,0002.02
2023-10-08 01:22:00,SystemResetWarning,0835.3,5.00,000.00,028.4,024.7,000.0,036.8,029.8,14.1,0000.0,0002.68,0008.60,0002.04
2023-10-08 01:23:00,SystemResetWarning,0835.0,4.99,000.00,028.3,025.1,000.0,036.8,029.8,14.2,0000.0,0002.73,0008.60,0002.04
2023-10-08 01:24:00,SystemResetWarning,0834.8,5.00,000.00,028.3,025.5,000.0,036.8,029.9,14.2,0000.0,0002.74,0007.65,0002.05
2023-10-08 01:25:00,SystemResetWarning,0834.8,5.00,000.00,028.3,025.9,000.0,036.8,029.9,14.2,0000.0,0002.71,0007.46,0002.05
2023-10-08 01:26:00,SystemResetWarning,0834.8,4.99,000.00,028.3,026.2,000.0,036.8,030.0,14.2,0000.0,0002.76,0008.31,0002.06
2023-10-08 01:27:00,SystemResetWarning,0834.9,5.00,000.00,028.3,026.4,000.0,036.8,030.0,14.1,0000.0,0002.76,0008.69,0002.06
2023-10-08 01:28:00,SystemResetWarning,0835.0,5.00,000.00,028.3,026.6,000.0,036.8,030.0,14.1,0000.0,0002.79,0008.62,0002.06
2023-10-08 01:29:00,SystemResetWarning,0834.9,5.01,000.00,028.4,026.8,000.0,036.8,030.1,14.1,0000.0,0002.83,0007.91,0002.06
2023-10-08 01:30:00,SystemResetWarning,0835.0,5.00,000.00,028.4,026.9,000.0,036.8,030.1,14.1,0000.0,0002.84,0007.98,0002.06
2023-10-08 01:31:00,SystemResetWarning,0835.0,4.99,000.00,028.4,027.1,000.0,036.8,030.2,14.0,0000.0,0002.87,0008.04,0002.05
2023-10-08 01:32:00,SystemResetWarning,0835.0,4.99,000.00,028.5,027.2,000.0,036.8,030.2,14.0,0000.0,0002.89,0008.13,0002.07
2023-10-08 01:33:00,SystemResetWarning,0835.0,4.99,000.00,028.5,027.3,000.0,036.9,030.3,14.0,0000.0,0002.91,0009.01,0002.08
2023-10-08 01:34:00,SystemResetWarning,0835.0,5.01,000.00,028.5,027.3,000.0,036.9,030.3,14.0,0000.0,0002.90,0009.24,0002.09
2023-10-08 01:35:00,SystemResetWarning,0835.0,5.01,000.00,028.6,027.4,000.0,036.9,030.3,14.0,0000.0,0002.92,0009.01,0002.10
2023-10-08 01:36:00,SystemResetWarning,0835.0,5.00,000.00,028.6,027.5,000.0,036.9,030.3,14.0,0000.0,0002.93,0009.19,0002.10
2023-10-08 01:37:00,SystemResetWarning,0834.9,5.00,000.00,028.6,027.5,000.0,036.9,030.4,13.9,0000.0,0002.93,0009.12,0002.11
2023-10-08 01:38:00,SystemResetWarning,0834.9,5.00,000.00,028.7,027.6,000.0,037.0,030.4,13.9,0000.0,0002.97,0009.10,0002.12
2023-10-08 01:39:00,SystemResetWarning,0835.0,5.00,000.00,028.7,027.6,000.0,037.0,030.4,13.9,0000.0,0003.02,0009.32,0002.12
2023-10-08 01:40:00,SystemResetWarning,0835.0,4.98,000.00,028.7,026.7,000.0,037.0,030.4,13.9,0000.0,0003.04,0009.35,0002.13
2023-10-08 01:41:00,SystemResetWarning,0834.9,5.01,000.00,028.6,024.8,000.0,036.9,030.2,14.0,0000.0,0003.13,0009.52,0002.15
2023-10-08 01:42:00,SystemResetWarning,0834.9,5.02,000.00,028.6,024.4,000.0,036.9,030.0,14.0,0000.0,0003.16,0009.75,0002.17
2023-10-08 01:43:00,SystemResetWarning,0835.0,5.00,000.00,028.4,024.6,000.0,036.8,029.8,14.1,0000.0,0003.19,0010.26,0002.19
2023-10-08 01:44:00,SystemResetWarning,0835.2,5.00,000.00,028.4,025.0,000.0,036.8,029.8,14.2,0000.0,0003.21,0010.57,0002.19
2023-10-08 01:45:00,SystemResetWarning,0835.0,5.00,000.00,028.3,025.4,000.0,036.8,029.9,14.3,0000.0,0003.21,0009.71,0002.21
2023-10-08 01:46:00,SystemResetWarning,0834.8,4.99,000.00,028.3,025.7,000.0,036.8,029.9,14.3,0000.0,0003.22,0009.79,0002.22
2023-10-08 01:47:00,SystemResetWarning,0834.8,5.00,000.00,028.3,026.0,000.0,036.8,029.9,14.3,0000.0,0003.22,0010.33,0002.23
2023-10-08 01:48:00,SystemResetWarning,0834.9,5.00,000.00,028.3,026.3,000.0,036.8,030.0,14.3,0000.0,0003.28,0010.17,0002.26
2023-10-08 01:49:00,SystemResetWarning,0834.9,5.00,000.00,028.3,026.5,000.0,036.8,030.0,14.3,0000.0,0003.29,0009.83,0002.28
2023-10-08 01:50:00,SystemResetWarning,0835.0,5.01,000.00,028.3,026.7,000.0,036.8,030.1,14.2,0000.0,0003.29,0009.40,0002.28
2023-10-08 01:51:00,SystemResetWarning,0834.9,5.00,000.00,028.4,026.8,000.0,036.9,030.1,14.2,0000.0,0003.29,0009.45,0002.28
2023-10-08 01:52:00,SystemResetWarning,0835.0,5.00,000.00,028.4,026.9,000.0,036.9,030.2,14.2,0000.0,0003.27,0009.54,0002.29
2023-10-08 01:53:00,SystemResetWarning,0834.9,4.99,000.00,028.4,027.0,000.0,036.9,030.2,14.2,0000.0,0003.24,0009.72,0002.30
2023-10-08 01:54:00,SystemResetWarning,0834.9,5.00,000.00,028.5,027.1,000.0,036.9,030.2,14.2,0000.0,0003.24,0009.99,0002.30
2023-10-08 01:55:00,SystemResetWarning,0834.9,5.00,000.00,028.5,027.2,000.0,036.9,030.2,14.1,0000.0,0003.23,0009.10,0002.31
2023-10-08 01:56:00,SystemResetWarning,0835.0,5.01,000.00,028.5,027.3,000.0,036.9,030.3,14.1,0000.0,0003.22,0008.89,0002.30
2023-10-08 01:57:00,SystemResetWarning,0835.0,5.01,000.00,028.5,027.3,000.0,036.9,030.3,14.0,0000.0,0003.23,0008.88,0002.31
2023-10-08 01:58:00,SystemResetWarning,0835.0,5.00,000.00,028.6,027.4,000.0,036.9,030.3,14.0,0000.0,0003.26,0008.37,0002.31
2023-10-08 01:59:00,SystemResetWarning,0835.0,5.00,000.00,028.6,027.4,000.0,037.0,030.3,14.0,0000.0,0003.28,0008.30,0002.33
